Zurück zum Katalog

STARLINK-4750

AktivKommunikationVLEO
NORAD 53841·PAYLOAD·🇺🇸 United States

Gestartet Sep 19, 2022 von Cape Canaveral Space Force Station

Loading…

Nächste Überflüge (nächste 24 Stunden)

TLE

AktuellSource: CelesTrak SupGP

Epoche: Sep 14, 2026, 22:15 UTC

1 53841C 22114Z   26257.92756944  .00174790  00000+0  96277-2 0  2576
2 53841  53.1595 163.9433 0001342  87.9414 161.1291 15.13427134    16

Verfolge STARLINK-4750 in Echtzeit mit AllMySat

Download on the App Store